Home > Weather > Costa Mesa > Past weeks

Flag for USA Past Weather in Costa Mesa, California, USA — Yesterday and Last 2 Weeks

Now
80 °F

Passing clouds.


Feels Like: 81 °F
Forecast: 69 / 83 °F
Wind: 12 mph from Southwest

Location: John Wayne Airport-Orange County Airport

Current Time: Jul 26, 2016 at 6:55:53 PM

Latest Report: Jul 26, 2016 at 5:53 PM


Visibility: 10 mi

Pressure: 29.83 "Hg

Humidity: 47%

Dew Point: 58 °F

Location of Costa MesaLocation

Past Weather in Costa Mesa — Graph

°F

Costa Mesa Temperature Yesterday

Maximum temperature yesterday: 84 °F (at 12:53 PM)
Minimum temperature yesterday: 70 °F (at 1:53 AM)
Average temperature yesterday: 75 °F

High & Low Weather Summary for the Past Weeks

 TemperatureHumidityPressure
High90 °F (Jul 22, 11:53 AM)93% (Jul 24, 2:53 AM)30.02 "Hg (Jul 24, 2:53 AM)
Low65 °F (Jul 17, 12:53 AM)33% (Jul 20, 3:53 PM)29.79 "Hg (Jul 23, 3:53 AM)
Average73 °F70%29.92 "Hg
* Reported Jul 11 4:53 PM — Jul 26 4:53 PM, Costa Mesa, Weather by CustomWeather, © 2016

Note: Actual official high and low records may vary slightly from our data, if they occured in-between our weather recording intervals... More about our weather records

Advertising

Costa Mesa Weather History for the Previous 24 Hours

Scroll right to see more
 ConditionsComfort  
Time TempWeatherWind HumidityBarometerVisibility
4:53 PM
Tue, Jul 26
83 °FPassing clouds.8 mph34%29.82 "Hg10 mi
3:53 PM83 °FScattered clouds.12 mph43%29.83 "Hg10 mi
2:53 PM83 °FPassing clouds.10 mph51%29.84 "Hg10 mi
1:53 PM86 °FScattered clouds.10 mph48%29.85 "Hg10 mi
12:53 PM85 °FPassing clouds.8 mph51%29.87 "Hg10 mi
11:53 AM83 °FSunny.8 mph55%29.88 "Hg10 mi
10:53 AM81 °FPassing clouds.8 mph60%29.89 "Hg10 mi
9:53 AM78 °FPassing clouds.5 mph66%29.89 "Hg9 mi
8:53 AM76 °FPassing clouds.No wind72%29.89 "Hg8 mi
7:53 AM73 °FScattered clouds.No wind79%29.89 "Hg7 mi
6:53 AM72 °FPassing clouds.3 mph81%29.88 "Hg8 mi
5:53 AM70 °FClear.No wind87%29.87 "Hg9 mi
4:53 AM70 °FClear.No wind84%29.88 "Hg9 mi
3:53 AM70 °FClear.No wind84%29.89 "Hg9 mi
2:53 AM71 °FClear.No wind84%29.89 "Hg9 mi
1:53 AM71 °FClear.No wind84%29.90 "Hg9 mi
12:53 AM71 °FClear.No wind84%29.90 "Hg9 mi
11:53 PM
Mon, Jul 25
71 °FClear.3 mph84%29.91 "Hg9 mi
10:53 PM72 °FPassing clouds.6 mph81%29.90 "Hg9 mi
9:53 PM73 °FPassing clouds.6 mph76%29.90 "Hg10 mi
8:53 PM73 °FScattered clouds.5 mph79%29.89 "Hg10 mi
7:53 PM74 °FBroken clouds.9 mph76%29.88 "Hg9 mi
6:53 PM76 °FScattered clouds.12 mph72%29.86 "Hg10 mi
Weather by CustomWeather, © 2016

See weather overviewHow to use our weather pages